User: anonymous   Login
Location: Dompnac
(44.5644°N, 4.1026°E)
Time: 03:23:57
(UTC+00:00)
Language:

Cosmos 1627 Rocket - Orbit

View from above orbital plane
View from above orbital plane
View from above satellite
View from above satellite

Ground track
Ground track

The orbit data is extracted from the following two-line orbital elements,

1 15506U 85011B   20329.06931123 +.00000002 +00000-0 -14160-4 0  9992
2 15506 082.9195 086.4818 0037377 135.4494 037.2560 13.76206503797868
Epoch (UTC): 24 November 2020 01:39:48
Eccentricity: 0.0037377
inclination: 82.9195°
perigee height: 950 km
apogee height: 1005 km
right ascension of ascending node: 86.4818°
argument of perigee: 135.4494°
revolutions per day: 13.76206503
mean anomaly at epoch: 37.2560°
orbit number at epoch: 79786

The dashed part of the orbit path shows where the satellite is in the earth's shadow,  

DLR